Hourly Data Report for October 15, 2016

All times are specified in Local Standard Time (LST). Add 1 hour to adjust for Daylight Saving Time where and when it is observed.

FREDERICTON
NEW BRUNSWICK

45°52'08.000" N
66°32'14.000" W
20.70 m
8101505
71700
YFC

Download Data

Hourly Data (October 2016)
Hourly Data Report for October 15, 2016
Temp Definition
°C
Dew Point Temp Definition
°C
Rel Hum Definition
%
Wind Dir Definition
10's deg

Wind Spd Definition
km/h
Visibility Definition
km
Stn Press Definition
kPa
Hmdx Definition


Wind Chill Definition


Weather Definition


TIME
00:00 Legend Double Dagger 1.0 -1.2 85 31 8 16.1 102.65     LegendNANA
01:00 Legend Double Dagger -2.3 -3.0 95 20 8 16.1 102.63   -5 LegendNANA
02:00 Legend Double Dagger -0.7 -1.7 93 30 11 16.1 102.66   -4 LegendNANA
03:00 Legend Double Dagger -0.3 -1.6 91 30 8 16.1 102.68   -3 LegendNANA
04:00 Legend Double Dagger -0.1 -1.8 89 31 8 16.1 102.65   -3 LegendNANA
05:00 Legend Double Dagger -0.8 -2.0 92 31 8 16.1 102.71   -4 LegendNANA
06:00 Legend Double Dagger -0.8 -1.7 94 28 5 16.1 102.75   -2 LegendNANA
07:00 Legend Double Dagger -3.7 -4.2 96 22 8 16.1 102.76   -7 LegendNANA
08:00 Legend Double Dagger -0.7 -1.8 92 20 5 16.1 102.87   -2 LegendNANA
09:00 Legend Double Dagger 2.3 -0.3 83 20 5 16.1 102.89     LegendNANA
10:00 Legend Double Dagger 6.1 0.4 67   0 16.1 102.91     LegendNANA
11:00 Legend Double Dagger 8.0 -1.5 51 LegendMM 4 16.1 102.90     LegendNANA
12:00 Legend Double Dagger 9.5 -2.1 44 LegendMM 4 16.1 102.77     LegendNANA
13:00 Legend Double Dagger 10.7 -3.9 36 35 5 16.1 102.74     LegendNANA
14:00 Legend Double Dagger 10.9 -3.5 36 14 8 16.1 102.63     LegendNANA
15:00 Legend Double Dagger 11.5 -4.3 33 LegendMM 11 16.1 102.62     LegendNANA
16:00 Legend Double Dagger 11.1 -4.4 33 LegendMM 4 16.1 102.57     LegendNANA
17:00 Legend Double Dagger 10.1 -1.8 43 17 9 16.1 102.52     LegendNANA
18:00 Legend Double Dagger 6.2 -0.7 61 18 5 16.1 102.50     LegendNANA
19:00 Legend Double Dagger 3.8 0.7 80 17 4 16.1 102.47     LegendNANA
20:00 Legend Double Dagger 2.1 -0.1 85 19 5 16.1 102.45     LegendNANA
21:00 Legend Double Dagger 2.7 0.3 84 21 8 16.1 102.43     LegendNANA
22:00 Legend Double Dagger 2.5 -0.6 80 19 4 16.1 102.42     LegendNANA
23:00 Legend Double Dagger 2.6 -0.1 83 18 11 16.1 102.39     LegendNANA

Notes on Data Quality.

Legend

  • E = Estimated
  • M = Missing
  • NA = Not Available
  • ‡ = Partner data that is not subject to review by the National Climate Archives
Date modified: